Location: Bacharowice
(49.9333°N, 19.5833°E)
Time: 12:33:09
(UTC+00:00)

Cosmos 2297 Rocket - Pass Details

Date: 11 May 2021
Orbit: 838 x 845 km, 71.0° (Epoch: 22 June)

Event Time Altitude Azimuth Distance (km) Brightness Sun altitude
Rises 23:00:00 0° 333° (NNW) 3,413 6.3 -21.8°
Reaches altitude 10° 23:02:45 10° 344° (NNW) 2,476 5.6 -21.7°
Maximum altitude 23:07:47 32° 46° (NE) 1,433 3.8 -21.6°
Drops below altitude 10° 23:12:48 10° 109° (ESE) 2,466 4.5 -21.5°
Enters shadow 23:15:26 - 119° (ESE) 3,370 5.1 -21.4°
